SCP
3 3 3 3 2 2 2 2 2 2 1 1 1 1 1 1 1 1 1 1 1 1 1 1 1 1 1 1 1 1 0 0 0 0 0 0 0 0 0 0 0 0 0
3 3 3 3 2 2 2 2 2 2 1 1 1 1 1 1 1 1 1 1 1 1 1 1 1 1 1 1 1 1 0 0 0 0 0 0 0 0 0 0 0 0 0
3 3 3 3 3 2 2 2 2 1 1 1 1 1 1 1 1 1 1 1 1 1 1 1 1 1 1 1 1 0 0 0 0 0 0 0 0 0 0 0 0 0 0
3 3 3 3 3 3 3 2 2 2 1 1 1 1 1 1 1 1 1 1 1 1 1 1 1 1 1 1 1 1 0 0 0 0 0 0 0 0 0 0 0 0 0
3 3 3 4 3 3 3 2 2 2 1 1 1 2 2 1 1 1 1 1 1 1 1 1 1 1 1 1 1 1 1 1 1 0 0 0 0 0 0 0 0 0 0
3 3 4 4 4 3 2 2 2 2 2 1 1 2 2 2 1 1 1 1 1 1 1 1 1 1 1 1 1 1 1 1 1 0 0 0 0 0 0 0 0 0 0
3 3 4 4 4 3 2 2 2 2 2 1 1 2 2 2 2 2 2 2 1 1 1 1 1 1 1 1 1 1 1 1 1 0 0 0 0 0 0 0 0 0 0
3 4 4 4 4 3 3 2 2 2 2 2 1 2 2 2 2 2 2 2 2 2 1 1 1 1 2 2 2 2 2 1 1 0 0 0 0 0 0 0 0 0 0
4 4 4 3 3 3 3 2 2 2 2 2 2 2 2 2 2 2 2 2 2 2 2 1 1 1 2 2 2 2 2 1 0 0 0 0 0 0 1 1 1 1 0
4 4 3 3 3 3 3 2 2 2 2 2 2 1 1 2 2 2 2 2 2 2 2 2 2 1 2 2 2 2 2 1 0 0 0 0 0 0 1 1 1 0 0
3 3 3 3 3 3 3 3 2 2 2 1 1 1 1 2 2 2 2 1 1 2 2 2 2 2 2 2 2 2 2 1 1 0 0 0 0 1 1 1 1 1 1
3 3 2 3 3 3 3 3 2 2 2 1 1 1 2 2 2 2 1 1 1 2 2 2 2 2 2 2 2 2 1 1 1 0 0 0 1 1 1 1 1 1 1
2 2 2 2 3 3 3 3 2 2 2 2 2 2 2 2 2 2 1 1 1 1 2 2 2 1 2 2 1 1 1 1 1 0 0 0 1 1 1 1 1 1 1
1 1 1 2 2 3 3 3 2 2 2 2 2 2 2 2 2 2 2 1 1 1 2 2 1 1 1 1 1 1 1 1 1 0 0 0 0 1 1 1 1 1 1
1 1 1 1 2 3 3 2 2 2 2 2 2 1 2 2 2 2 2 1 1 1 1 2 1 1 1 1 1 1 1 1 1 0 0 0 0 1 1 1 1 1 1
1 1 1 1 1 2 2 2 1 1 2 2 2 1 1 1 2 2 2 1 1 1 1 1 2 1 1 1 1 1 1 1 1 0 0 0 0 0 1 1 1 1 1
1 1 1 1 1 2 2 1 1 1 1 2 2 1 1 1 1 2 2 1 1 1 1 1 2 2 1 1 1 1 1 1 1 1 1 0 0 0 1 1 1 1 1
0 1 1 1 1 1 1 1 0 0 1 1 1 1 0 1 1 2 2 1 1 1 1 1 2 2 2 1 1 1 1 1 1 1 1 1 0 0 0 1 1 1 1
0 1 1 1 1 1 0 0 0 0 0 1 1 1 0 1 1 1 1 1 1 0 0 1 2 2 2 1 1 1 1 1 1 1 1 1 1 0 0 0 1 1 1
0 0 1 1 1 0 0 0 0 0 0 0 0 1 1 1 1 1 1 1 1 0 0 1 2 2 2 1 0 0 1 1 1 1 1 1 1 0 0 0 0 0 0
0 0 1 1 1 1 0 0 0 0 0 0 0 1 1 1 1 1 1 1 0 0 0 1 2 2 2 1 0 0 1 1 1 1 1 1 1 1 0 0 0 0 0
0 0 1 1 1 1 0 0 0 0 0 0 0 0 0 0 1 1 1 1 0 0 0 0 1 2 2 1 0 0 0 1 1 1 1 1 1 1 0 0 0 0 0
0 0 1 1 1 1 0 0 0 0 0 0 0 0 0 0 1 1 1 0 0 0 0 0 1 1 1 0 0 0 0 0 0 0 0 1 1 1 1 0 0 0 0
0 0 0 0 1 1 0 0 0 0 0 0 0 0 0 0 1 1 1 0 0 0 0 0 0 1 0 0 0 0 0 0 0 0 0 0 1 1 0 0 0 0 0
0 0 0 0 0 0 0 0 0 0 0 0 0 0 0 0 1 1 1 1 0 0 0 0 0 0 0 0 0 0 0 0 0 0 0 0 0 0 0 0 0 0 0
0 0 0 0 0 0 0 0 0 0 0 0 0 0 0 0 1 1 1 1 0 0 0 0 0 0 0 0 0 0 0 0 0 0 0 0 0 0 0 0 0 0 0
Wind_Speed
7 9 10 9 8 8 7 7 8 7 8 8 8 7 7 7 7 8 8 8 7 7 8 9 8 8 9 9 10 10 9 9 9 9 9 9 9 9 9 9 9 7 10
8 9 10 9 8 7 7 7 7 7 7 7 7 7 7 7 7 7 7 7 7 6 7 8 8 9 9 8 9 9 8 7 6 6 6 5 6 7 8 10 9 6 9
8 9 9 9 8 7 7 7 6 6 6 7 7 7 7 7 7 7 6 6 6 6 7 8 8 8 8 8 8 7 6 4 3 3 3 3 5 7 8 8 9 9 9
7 8 8 9 8 7 7 7 6 6 6 6 6 6 7 6 7 7 7 6 6 7 7 8 7 7 7 7 7 6 4 2 1 1 1 3 4 8 8 8 8 8 8
6 7 8 9 8 7 7 6 6 6 6 6 6 6 6 6 6 6 6 7 7 7 7 7 7 7 7 6 6 5 3 1 2 2 2 4 4 7 8 8 8 7 7
6 6 7 9 8 7 6 6 6 6 5 5 5 6 6 6 6 6 6 6 7 7 7 7 7 6 6 6 5 3 2 2 2 1 3 4 4 7 7 7 6 7 7
5 5 6 8 8 7 6 6 5 5 5 5 5 6 6 6 6 6 6 6 7 7 7 7 6 6 6 5 4 3 2 3 1 3 4 4 4 7 7 6 6 6 6
4 4 5 7 7 7 6 5 5 5 5 5 5 5 5 5 6 6 6 5 6 6 6 6 6 6 6 5 4 2 3 4 1 4 4 4 6 6 6 6 6 6 6
4 4 4 4 5 6 6 5 5 4 4 4 4 4 4 5 5 6 6 5 6 6 5 6 6 5 5 4 3 2 3 4 2 2 5 4 6 6 6 6 6 6 7
2 3 4 4 4 4 4 5 5 5 5 5 5 5 5 5 5 5 6 6 5 5 5 5 5 5 4 3 1 1 3 3 1 3 3 4 6 6 6 6 6 6 7
1 1 3 3 3 3 3 4 4 5 5 5 4 5 5 3 3 3 5 6 5 4 4 4 3 4 3 2 1 2 2 0 3 3 3 5 6 6 6 6 6 6 6
2 2 2 3 3 2 3 3 2 3 3 3 3 4 3 2 3 4 5 5 4 3 4 3 3 3 2 1 2 2 1 1 3 3 3 6 6 6 6 6 6 6 6
2 2 2 3 3 2 2 2 1 1 2 2 3 3 2 2 3 3 2 3 2 3 2 3 3 2 2 1 1 1 1 2 3 3 3 6 6 6 6 6 6 6 6
2 2 2 2 2 2 2 1 1 1 1 1 2 3 2 2 2 2 2 2 2 1 1 1 1 1 1 1 1 1 2 2 3 2 3 6 6 5 5 6 6 6 5
3 2 2 2 2 2 1 1 1 1 1 1 1 1 2 2 2 2 2 2 2 1 1 1 0 1 1 1 1 2 2 3 3 3 2 6 6 5 5 5 5 5 5
3 3 2 1 2 2 1 1 1 1 1 1 1 1 1 1 1 2 2 2 2 2 1 1 1 1 1 1 2 2 2 2 3 3 3 4 6 5 5 4 4 4 4
2 3 2 2 2 2 1 1 0 0 1 1 1 1 2 1 1 1 2 2 2 2 2 1 1 1 2 2 2 2 2 2 2 3 2 2 3 4 4 4 4 4 4
2 3 2 1 2 2 2 1 1 1 1 1 1 1 2 2 1 1 2 2 2 2 2 2 2 2 2 1 1 1 1 1 1 2 2 2 2 2 3 4 3 3 3
2 3 2 2 2 2 2 2 1 1 1 1 1 1 2 2 2 2 1 1 2 2 2 2 2 2 2 1 1 1 1 1 1 2 2 2 2 3 2 3 3 3 3
2 3 3 2 2 2 2 2 1 1 1 1 1 2 2 2 2 2 1 2 2 2 2 2 2 2 2 2 1 1 0 0 1 2 2 2 1 2 2 2 1 1 3
2 2 2 2 2 2 2 2 1 1 1 1 2 2 2 2 2 3 2 2 2 2 3 3 3 3 2 2 2 1 1 1 2 2 2 2 1 1 1 1 1 0 0
3 2 3 3 3 2 1 1 2 1 1 1 1 2 2 2 2 3 3 2 2 2 3 3 3 3 2 2 2 1 0 1 1 1 2 2 2 1 1 1 1 0 0
3 2 3 2 3 3 2 1 2 2 1 1 1 1 2 2 2 2 2 3 2 2 2 2 2 3 3 1 2 2 2 2 1 1 2 2 2 1 1 1 1 1 1
3 2 2 3 3 3 2 2 3 2 2 1 1 1 2 2 2 2 3 3 3 2 2 2 1 2 3 2 1 0 1 3 2 1 1 1 2 2 2 2 1 1 1
3 3 2 3 3 3 3 3 3 2 1 1 1 2 2 2 2 2 2 2 2 2 2 2 1 1 2 2 2 1 0 1 1 2 2 2 1 1 2 2 2 2 1
3 3 3 3 3 3 3 3 3 3 2 2 2 2 1 1 1 2 2 2 2 2 2 2 2 2 2 2 2 1 2 2 2 2 2 2 2 2 2 2 2 2 2
Wind_Direction
104 113 110 99 96 94 94 101 102 99 105 108 107 106 105 105 102 100 97 94 94 96 98 97 98 95 90 86 82 79 78 77 79 78 74 70 68 67 62 58 64 65 68
110 115 113 102 97 96 95 101 105 102 102 106 106 106 106 104 105 102 101 100 98 99 101 98 96 93 91 88 85 84 81 81 81 83 80 76 74 71 64 58 63 65 67
104 114 114 102 98 94 94 97 105 106 105 106 106 106 107 107 103 102 101 101 101 100 100 97 95 92 88 85 86 87 85 83 78 79 84 99 88 80 72 66 67 65 65
96 112 111 106 101 96 93 94 103 109 110 109 108 107 106 108 107 104 100 98 99 98 98 97 95 93 90 87 86 89 89 74 45 356 89 91 85 83 76 73 68 65 65
89 108 111 107 103 98 94 93 100 103 108 110 111 110 109 107 106 106 103 99 97 96 96 96 95 93 91 91 90 86 76 2 313 299 75 82 79 83 77 72 67 64 65
89 102 115 111 108 104 99 97 101 105 105 110 114 112 108 104 103 103 100 98 98 96 96 95 94 92 89 92 91 84 47 339 312 349 72 81 80 79 78 74 72 69 65
90 101 121 118 116 113 108 100 100 110 110 111 118 117 116 110 104 103 101 101 103 103 101 98 97 94 89 88 86 66 9 351 360 64 69 74 79 81 77 74 75 75 68
99 105 124 125 124 123 118 109 103 111 115 112 118 123 120 115 108 102 98 105 109 110 108 105 100 96 91 86 78 44 5 354 19 81 74 69 72 81 76 73 73 76 71
103 111 128 137 132 125 124 122 116 116 120 120 117 120 122 121 116 113 101 96 107 109 109 106 103 100 97 91 79 26 344 341 359 67 77 72 73 76 76 75 74 70 66
96 118 135 140 139 134 129 129 123 123 123 125 122 121 125 123 118 113 104 92 97 109 109 109 110 111 110 107 98 337 318 329 36 73 71 74 78 78 73 75 77 74 70
115 136 138 134 137 139 144 132 129 128 132 136 140 142 149 156 139 118 107 91 90 112 125 129 133 134 129 148 201 275 304 45 75 74 68 78 88 87 80 75 75 80 74
193 166 145 137 129 133 141 137 147 148 155 164 160 169 184 149 127 123 123 111 101 127 148 164 176 163 163 182 226 261 290 78 87 76 68 79 87 85 80 77 75 74 76
187 168 144 143 142 140 133 154 154 153 165 166 172 173 152 135 138 139 141 141 144 166 176 180 191 197 182 162 177 175 49 62 77 74 70 78 84 87 82 78 72 70 68
177 165 149 147 147 137 130 146 151 150 162 160 178 168 161 155 159 151 146 157 151 154 162 185 203 192 172 152 145 110 81 79 84 78 72 77 79 86 86 82 71 66 66
175 160 146 154 153 138 134 161 141 155 163 153 153 179 163 157 162 150 144 144 139 132 154 188 166 160 128 118 105 91 84 91 95 95 80 78 78 82 84 83 79 67 57
169 152 144 167 155 138 134 140 140 157 150 135 142 159 152 156 155 152 146 145 141 135 154 167 135 119 94 86 85 88 96 97 99 109 111 86 79 80 80 78 77 68 55
161 143 150 176 152 146 140 145 107 117 140 150 152 138 111 111 127 152 151 150 148 140 142 129 102 80 77 72 70 65 74 91 110 112 115 110 98 81 80 72 62 57 50
149 136 148 177 150 152 138 140 123 108 142 157 149 136 130 125 127 142 157 159 151 135 126 140 129 105 90 79 68 51 57 78 89 100 104 104 108 100 79 73 60 51 40
148 143 146 145 153 156 138 134 126 131 144 146 140 140 142 143 143 133 162 160 135 126 120 131 117 126 119 96 87 61 37 69 102 103 101 95 107 120 120 89 71 50 30
139 141 143 144 145 139 128 118 104 106 137 147 145 150 141 144 149 137 152 162 138 127 121 122 129 122 134 132 109 75 13 199 139 132 137 120 111 122 128 124 113 54 36
120 133 137 134 135 128 134 139 135 154 174 158 161 152 141 145 155 146 152 157 150 143 147 140 137 133 130 113 85 51 331 228 165 161 156 147 135 133 126 123 121 105 357
144 146 137 142 141 135 156 162 157 147 154 159 157 144 139 150 153 150 152 153 151 148 145 141 147 137 155 139 134 134 45 325 260 183 169 169 170 156 149 134 123 113 115
139 140 147 145 141 138 145 133 120 90 80 97 121 155 156 149 146 140 147 146 149 147 151 155 158 152 169 188 162 155 159 204 290 261 205 182 168 167 185 187 186 189 161
144 139 150 146 142 139 138 141 142 137 146 171 154 152 150 138 139 149 148 143 146 144 155 164 154 157 160 177 193 161 169 155 157 273 278 232 197 199 213 219 211 213 196
139 148 154 144 142 139 141 143 136 114 112 106 115 118 128 131 132 138 136 129 135 147 158 148 142 163 164 174 175 193 225 148 166 185 249 264 273 240 217 212 212 219 210
143 151 152 146 141 139 142 140 136 127 115 108 123 137 134 131 133 137 134 137 146 152 160 163 158 171 178 175 173 176 182 193 202 199 229 244 251 255 242 225 222 224 216